Skip Navigation Links
NOAA logo - Click to go to the NOAA homepage
NOAA's National Weather Service
Alaska Aviation Weather Unit
  NWS logo - Click to go to the NWS homepage
Left Navbar Graphic     21 AKDT = 05 GMT

   
NOAA is celebrating 200 years of science, service, and stewardship. Visit the NOAA 200th celebration Web site to learn more.
USA.gov is the U.S. Government's official Web portal to all Federal, state and local government Web resources and services.
Facebook
NWS on Facebook

Important Change Regarding the AAWU Web Presence

 

Over the last several months, the AAWU has been working to navigate its webpages to a nationally supported server. Security, as well as other needs, have necessitated the change.  In the process, we have made an effort to enhance the functionality of our website, as well as some of our products. As of June 27, 2017, aawu.arh.noaa.gov will be discontinued. The new AAWU web address is weather.gov/aawu. It is now live and will run in-parallel with the old site until it is discontinued. Please send any feedback or questions regarding the new webpages to nws.ar.aawu.webauthors@noaa.gov.  Thank you for your patience during this time of transition.
AAWU Home :: Display TAF Add Bookmark
TAF PAGA 242354Z 2500/2524 25015G21KT P6SM VCSH BKN080
     FM250600 26009KT P6SM FEW050 BKN100=

METAR PAGA 242356Z AUTO 26012KT 10SM CLR 19/08 A3011= METAR PAGA 250056Z AUTO 26016KT 10SM FEW090 20/07 A3010= METAR PAGA 250156Z AUTO 26013G18KT 10SM SCT055 21/07 A3009 RMK AO2 SLP190 T02060067= METAR PAGA 250256Z AUTO 25013KT 10SM CLR 20/06 A3008 RMK AO2 SLP187 T02000061 56011= METAR PAGA 250356Z AUTO 26013KT 10SM CLR 20/06 A3007= METAR PAGA 250456Z AUTO 26009KT 10SM FEW090 19/05 A3006=
 Alaska TAF Map

NOAA's National Weather Service
Alaska Aviation Weather Unit
6930 Sand Lake Road
Anchorage, AK 99502-1845
Disclaimer
Credits
Glossary
Privacy Policy
About Us
Career Opportunities
Contact AAWU Internet Services Site last modified: April, 17th 2012